LJLJ

Ljubljana Jože Pučnik Airport

Airport
ICAO code
LJLJ
Summary
ICAO Region
EUR
ICAO Territory
Location

Ljubljana,

Coordinates
46° 13' 51" N , 14° 27' 18" E
Metar
Observation
LJLJ 291630Z 13007KT 9999 SCT020 BKN040 BKN150 02/00 Q1019 NOSIG
Station
Ljubljana / Brnik
Date/Time
2022-11-29 16:30:00
Wind direction
130°
Wind speed
07 kts
Lowest cloud amount
scattered clouds
Temperature
2°C
Dew point
0°C
Humidity
86%
QNH
1019 hPa
Weather condition
n/a

Ljubljana Jože Pučnik Airport (IATA: LJU, ICAO: LJLJ), also known by its previous name Brnik Airport, is the international airport of Ljubljana, Slovenia. The airport is located near the village of Brnik, 19 km north of Ljubljana and 11 km south of Kranj on the road between Kranj and Mengeš.

Runways

Designator Length Width Surface Rops
13/31 3300 45 ASP Yes/Yes

Airport map

Aerial View

Airport accidents

SKYbrary Partners:

Safety knowledge contributed by: